TimeEST,TemperatureF,Dew PointF,Humidity,Sea Level PressureIn,VisibilityMPH,Wind Direction,Wind SpeedMPH,Gust SpeedMPH,PrecipitationIn,Events,Conditions,WindDirDegrees,DateUTC
12:12 AM,46.4,44.6,93,30.16,10.0,SSW,5.8,-,N/A,,Scattered Clouds,210,2012-12-03 05:12:00
12:33 AM,46.4,44.6,93,30.16,7.0,WSW,3.5,-,N/A,,Clear,240,2012-12-03 05:33:00
12:54 AM,44.6,44.6,100,30.16,5.0,Calm,Calm,-,N/A,,Clear,0,2012-12-03 05:54:00
1:15 AM,44.6,42.8,93,30.17,3.0,Calm,Calm,-,N/A,,Clear,0,2012-12-03 06:15:00
1:36 AM,44.6,42.8,93,30.17,4.0,Calm,Calm,-,N/A,,Clear,0,2012-12-03 06:36:00
1:57 AM,44.6,42.8,93,30.18,4.0,Calm,Calm,-,N/A,,Clear,0,2012-12-03 06:57:00
2:18 AM,42.8,42.8,100,30.19,4.0,Calm,Calm,-,N/A,,Clear,0,2012-12-03 07:18:00
2:39 AM,42.8,41.0,93,30.20,2.5,Calm,Calm,-,N/A,,Scattered Clouds,0,2012-12-03 07:39:00
3:00 AM,42.8,41.0,93,30.19,2.0,Calm,Calm,-,N/A,,Clear,0,2012-12-03 08:00:00
3:45 AM,42.8,41.0,93,30.19,0.5,Calm,Calm,-,N/A,,Unknown,0,2012-12-03 08:45:00
4:06 AM,41.0,39.2,93,30.19,1.0,Calm,Calm,-,N/A,,Unknown,0,2012-12-03 09:06:00
4:27 AM,41.0,39.2,93,30.20,0.8,Calm,Calm,-,N/A,,Unknown,0,2012-12-03 09:27:00
4:48 AM,39.2,37.4,93,30.20,1.2,Calm,Calm,-,N/A,,Unknown,0,2012-12-03 09:48:00
5:09 AM,41.0,39.2,93,30.20,0.5,Calm,Calm,-,N/A,,Unknown,0,2012-12-03 10:09:00
5:30 AM,39.2,37.4,93,30.20,0.8,Calm,Calm,-,N/A,,Unknown,0,2012-12-03 10:30:00
5:51 AM,41.0,39.2,93,30.21,0.5,Calm,Calm,-,N/A,,Unknown,0,2012-12-03 10:51:00
6:12 AM,39.2,37.4,93,30.21,3.0,Calm,Calm,-,N/A,,Clear,0,2012-12-03 11:12:00
6:33 AM,37.4,35.6,93,30.23,1.0,Calm,Calm,-,N/A,,Unknown,0,2012-12-03 11:33:00
6:54 AM,39.2,37.4,93,30.24,1.2,Calm,Calm,-,N/A,,Unknown,0,2012-12-03 11:54:00
7:18 AM,37.4,37.4,100,30.25,1.2,Calm,Calm,-,N/A,,Unknown,0,2012-12-03 12:18:00
7:39 AM,37.4,37.4,100,30.25,1.5,Calm,Calm,-,N/A,,Unknown,0,2012-12-03 12:39:00
8:00 AM,37.4,37.4,100,30.26,2.5,Calm,Calm,-,N/A,,Clear,0,2012-12-03 13:00:00
8:21 AM,39.2,37.4,93,30.26,3.0,Calm,Calm,-,N/A,,Clear,0,2012-12-03 13:21:00
8:42 AM,42.8,41.0,93,30.26,3.0,Calm,Calm,-,N/A,,Clear,0,2012-12-03 13:42:00
9:45 AM,53.6,51.8,94,30.27,10.0,Calm,Calm,-,N/A,,Clear,0,2012-12-03 14:45:00
10:06 AM,59.0,50.0,72,30.28,10.0,Calm,Calm,-,N/A,,Scattered Clouds,0,2012-12-03 15:06:00
10:48 AM,62.6,51.8,68,30.27,10.0,Calm,Calm,-,N/A,,Clear,0,2012-12-03 15:48:00
11:09 AM,64.4,51.8,64,30.26,10.0,Calm,Calm,-,N/A,,Clear,0,2012-12-03 16:09:00
11:33 AM,66.2,51.8,60,30.25,10.0,Calm,Calm,-,N/A,,Clear,0,2012-12-03 16:33:00
11:54 AM,66.2,51.8,60,30.24,10.0,Calm,Calm,-,N/A,,Clear,0,2012-12-03 16:54:00
12:15 PM,68.0,51.8,56,30.23,10.0,WSW,5.8,-,N/A,,Scattered Clouds,250,2012-12-03 17:15:00
12:36 PM,68.0,51.8,56,30.23,10.0,West,6.9,-,N/A,,Clear,260,2012-12-03 17:36:00
12:57 PM,68.0,51.8,56,30.22,10.0,West,8.1,-,N/A,,Clear,280,2012-12-03 17:57:00
1:18 PM,68.0,51.8,56,30.21,10.0,SW,3.5,-,N/A,,Clear,230,2012-12-03 18:18:00
1:39 PM,69.8,51.8,53,30.21,10.0,West,4.6,-,N/A,,Clear,270,2012-12-03 18:39:00
2:00 PM,69.8,51.8,53,30.21,10.0,West,6.9,-,N/A,,Scattered Clouds,260,2012-12-03 19:00:00
2:21 PM,69.8,51.8,53,30.21,10.0,West,5.8,-,N/A,,Scattered Clouds,260,2012-12-03 19:21:00
2:42 PM,69.8,51.8,53,30.21,10.0,Calm,Calm,-,N/A,,Scattered Clouds,0,2012-12-03 19:42:00
3:03 PM,68.0,51.8,56,30.21,10.0,West,5.8,-,N/A,,Scattered Clouds,260,2012-12-03 20:03:00
3:24 PM,68.0,51.8,56,30.21,10.0,West,8.1,-,N/A,,Clear,260,2012-12-03 20:24:00
4:09 PM,64.4,51.8,64,30.23,10.0,West,3.5,-,N/A,,Mostly Cloudy,260,2012-12-03 21:09:00
4:30 PM,64.4,51.8,64,30.23,10.0,Calm,Calm,-,N/A,,Mostly Cloudy,0,2012-12-03 21:30:00
4:51 PM,62.6,51.8,68,30.23,10.0,Calm,Calm,-,N/A,,Overcast,0,2012-12-03 21:51:00
5:12 PM,62.6,51.8,68,30.22,10.0,Calm,Calm,-,N/A,,Overcast,0,2012-12-03 22:12:00
5:33 PM,59.0,51.8,77,30.23,10.0,Calm,Calm,-,N/A,,Scattered Clouds,0,2012-12-03 22:33:00
5:54 PM,57.2,51.8,82,30.24,10.0,Calm,Calm,-,N/A,,Clear,0,2012-12-03 22:54:00
6:15 PM,55.4,50.0,82,30.25,10.0,Calm,Calm,-,N/A,,Clear,0,2012-12-03 23:15:00
6:36 PM,53.6,50.0,88,30.26,10.0,Calm,Calm,-,N/A,,Clear,0,2012-12-03 23:36:00
6:57 PM,53.6,50.0,88,30.26,10.0,Calm,Calm,-,N/A,,Mostly Cloudy,0,2012-12-03 23:57:00
7:18 PM,53.6,50.0,88,30.26,10.0,ESE,4.6,-,N/A,,Overcast,120,2012-12-04 00:18:00
7:39 PM,53.6,50.0,88,30.26,10.0,Calm,Calm,-,N/A,,Mostly Cloudy,0,2012-12-04 00:39:00
8:00 PM,51.8,48.2,88,30.26,10.0,Calm,Calm,-,N/A,,Scattered Clouds,0,2012-12-04 01:00:00
8:21 PM,51.8,48.2,88,30.26,10.0,Calm,Calm,-,N/A,,Clear,0,2012-12-04 01:21:00
8:45 PM,50.0,46.4,87,30.26,10.0,Calm,Calm,-,N/A,,Clear,0,2012-12-04 01:45:00
9:06 PM,48.2,46.4,93,30.26,7.0,Calm,Calm,-,N/A,,Clear,0,2012-12-04 02:06:00
9:27 PM,50.0,46.4,87,30.26,10.0,Calm,Calm,-,N/A,,Scattered Clouds,0,2012-12-04 02:27:00
9:48 PM,50.0,46.4,87,30.26,7.0,Calm,Calm,-,N/A,,Mostly Cloudy,0,2012-12-04 02:48:00
10:09 PM,50.0,46.4,87,30.25,5.0,Calm,Calm,-,N/A,,Mostly Cloudy,0,2012-12-04 03:09:00
10:51 PM,46.4,44.6,93,30.25,7.0,Calm,Calm,-,N/A,,Scattered Clouds,0,2012-12-04 03:51:00
11:12 PM,46.4,44.6,93,30.25,7.0,SSE,5.8,-,N/A,,Scattered Clouds,160,2012-12-04 04:12:00
11:33 PM,44.6,42.8,93,30.25,5.0,Calm,Calm,-,N/A,,Clear,0,2012-12-04 04:33:00
11:54 PM,46.4,44.6,93,30.25,5.0,Calm,Calm,-,N/A,,Clear,0,2012-12-04 04:54:00